| time (UTC) | temp C | wind direction | speed KPH | gust KPH | rain 1hr cm | rain 24hr cm | rain mn cm | humidity % | barometer mb |
| 20260903141421 | 16 | 150 | 0.0 | 0.0 | 0.00 | 0.46 | 0.46 | 94 | 1026.5 |
| 20260903140917 | 15 | 150 | 0.0 | 0.0 | 0.00 | 0.46 | 0.46 | 94 | 1026.4 |
| 20260903140413 | 16 | 150 | 0.0 | 0.0 | 0.00 | 0.46 | 0.46 | 94 | 1026.4 |
| 20260903135908 | 16 | 150 | 0.0 | 0.0 | 0.00 | 0.46 | 0.46 | 94 | 1026.5 |
| 20260903135404 | 15 | 150 | 0.0 | 0.0 | 0.00 | 0.46 | 0.46 | 94 | 1026.5 |
| 20260903134903 | 15 | 150 | 0.0 | 0.0 | 0.00 | 0.46 | 0.46 | 94 | 1026.5 |
| 20260903134357 | 15 | 150 | 0.0 | 0.0 | 0.00 | 0.46 | 0.46 | 94 | 1026.5 |
| 20260903133855 | 15 | 150 | 0.0 | 1.6 | 0.00 | 0.46 | 0.46 | 94 | 1026.4 |
| 20260903133351 | 15 | 150 | 0.0 | 0.0 | 0.00 | 0.46 | 0.46 | 94 | 1026.3 |
| 20260903132846 | 15 | 150 | 0.0 | 0.0 | 0.18 | 0.46 | 0.46 | 94 | 1026.3 |
| 20260903132342 | 15 | 150 | 0.0 | 0.0 | 0.18 | 0.46 | 0.46 | 94 | 1026.5 |
| 20260903131841 | 15 | 150 | 0.0 | 0.0 | 0.18 | 0.46 | 0.46 | 94 | 1026.6 |
| 20260903131341 | 15 | 150 | 0.0 | 0.0 | 0.00 | 0.43 | 0.43 | 94 | 1026.5 |
| 20260903130840 | 15 | 150 | 0.0 | 0.0 | 0.00 | 0.43 | 0.43 | 94 | 1026.8 |
| 20260903130335 | 15 | 150 | 0.0 | 0.0 | 0.00 | 0.43 | 0.43 | 94 | 1026.8 |
| 20260903125834 | 15 | 150 | 0.0 | 0.0 | 0.00 | 0.43 | 0.43 | 94 | 1026.8 |
| 20260903125330 | 15 | 150 | 0.0 | 0.0 | 0.00 | 0.43 | 0.43 | 94 | 1026.8 |
| 20260903124828 | 15 | 150 | 0.0 | 0.0 | 0.00 | 0.43 | 0.43 | 94 | 1026.9 |
| 20260903124324 | 15 | 150 | 0.0 | 0.0 | 0.00 | 0.43 | 0.43 | 94 | 1026.9 |
| 20260903123822 | 15 | 150 | 0.0 | 0.0 | 0.00 | 0.43 | 0.43 | 94 | 1026.9 |
| 20260903123318 | 15 | 150 | 0.0 | 0.0 | 0.00 | 0.43 | 0.43 | 94 | 1027.0 |
| 20260903122816 | 15 | 150 | 0.0 | 3.2 | 0.00 | 0.43 | 0.43 | 94 | 1027.0 |
| 20260903122311 | 15 | 150 | 0.0 | 0.0 | 0.00 | 0.43 | 0.43 | 94 | 1027.1 |
| 20260903121809 | 15 | 150 | 0.0 | 0.0 | 0.00 | 0.43 | 0.43 | 94 | 1027.1 |
| 20260903121305 | 15 | 150 | 0.0 | 0.0 | 0.00 | 0.43 | 0.43 | 94 | 1027.2 |
| 20260903120800 | 15 | 150 | 0.0 | 0.0 | 0.00 | 0.43 | 0.43 | 94 | 1027.4 |
| 20260903120254 | 15 | 150 | 0.0 | 0.0 | 0.00 | 0.43 | 0.43 | 94 | 1027.5 |
| 20260903115752 | 15 | 150 | 0.0 | 0.0 | 0.00 | 0.43 | 0.43 | 94 | 1027.4 |
| 20260903115248 | 15 | 150 | 0.0 | 0.0 | 0.00 | 0.43 | 0.43 | 94 | 1027.4 |
| 20260903114742 | 15 | 150 | 0.0 | 1.6 | 0.00 | 0.43 | 0.43 | 94 | 1027.5 |
| 20260903114238 | 15 | 150 | 0.0 | 0.0 | 0.18 | 0.43 | 0.43 | 94 | 1027.5 |
| 20260903113733 | 14 | 150 | 0.0 | 0.0 | 0.18 | 0.43 | 0.43 | 94 | 1027.5 |
| 20260903113229 | 15 | 150 | 0.0 | 0.0 | 0.00 | 0.41 | 0.41 | 94 | 1027.5 |
| 20260903112725 | 15 | 150 | 0.0 | 0.0 | 0.00 | 0.41 | 0.41 | 94 | 1027.5 |
| 20260903112220 | 15 | 150 | 0.0 | 0.0 | 0.00 | 0.41 | 0.41 | 94 | 1027.4 |
| 20260903111719 | 15 | 150 | 0.0 | 0.0 | 0.00 | 0.41 | 0.41 | 94 | 1027.4 |
| 20260903111214 | 15 | 150 | 0.0 | 0.0 | 0.13 | 0.41 | 0.41 | 94 | 1027.6 |
| 20260903110710 | 15 | 150 | 0.0 | 0.0 | 0.13 | 0.41 | 0.41 | 94 | 1027.4 |
| 20260903110206 | 15 | 150 | 0.0 | 0.0 | 0.00 | 0.38 | 0.38 | 94 | 1027.6 |
| 20260903105700 | 15 | 150 | 0.0 | 0.0 | 0.00 | 0.38 | 0.38 | 94 | 1027.4 |
| 20260903105155 | 15 | 150 | 0.0 | 1.6 | 0.00 | 0.38 | 0.38 | 94 | 1027.2 |
| 20260903104654 | 15 | 150 | 0.0 | 0.0 | 0.00 | 0.38 | 0.38 | 94 | 1027.0 |
| 20260903104150 | 15 | 150 | 0.0 | 1.6 | 0.00 | 0.38 | 0.38 | 94 | 1026.8 |
| 20260903103646 | 15 | 150 | 0.0 | 1.6 | 0.00 | 0.38 | 0.38 | 94 | 1026.9 |
| 20260903103142 | 15 | 150 | 0.0 | 1.6 | 0.00 | 0.38 | 0.38 | 94 | 1027.1 |
| 20260903102637 | 15 | 150 | 0.0 | 1.6 | 0.00 | 0.38 | 0.38 | 94 | 1027.3 |
| 20260903102136 | 15 | 150 | 0.0 | 0.0 | 0.00 | 0.38 | 0.38 | 94 | 1027.2 |
| 20260903101630 | 15 | 150 | 0.0 | 0.0 | 0.00 | 0.38 | 0.38 | 94 | 1027.1 |
| 20260903101125 | 15 | 150 | 0.0 | 0.0 | 0.00 | 0.38 | 0.38 | 94 | 1027.0 |
| 20260903100620 | 15 | 150 | 0.0 | 0.0 | 0.00 | 0.38 | 0.38 | 94 | 1027.3 |
| 20260903100119 | 15 | 150 | 0.0 | 0.0 | 0.00 | 0.38 | 0.38 | 94 | 1027.4 |
| 20260903095617 | 15 | 150 | 0.0 | 0.0 | 0.00 | 0.38 | 0.38 | 94 | 1027.1 |
| 20260903095117 | 15 | 150 | 0.0 | 0.0 | 0.00 | 0.38 | 0.38 | 94 | 1027.3 |
| 20260903094612 | 15 | 150 | 0.0 | 0.0 | 0.00 | 0.38 | 0.38 | 94 | 1027.1 |
| 20260903094107 | 15 | 150 | 0.0 | 0.0 | 0.00 | 0.38 | 0.38 | 94 | 1027.2 |
| 20260903093603 | 15 | 150 | 0.0 | 0.0 | 0.00 | 0.38 | 0.38 | 94 | 1027.0 |
| 20260903093058 | 15 | 150 | 0.0 | 0.0 | 0.00 | 0.38 | 0.38 | 94 | 1027.1 |
| 20260903092557 | 15 | 150 | 0.0 | 0.0 | 0.00 | 0.38 | 0.38 | 94 | 1027.1 |
| 20260903092052 | 15 | 150 | 0.0 | 0.0 | 0.00 | 0.38 | 0.38 | 94 | 1027.4 |
| 20260903091550 | 15 | 150 | 0.0 | 0.0 | 0.00 | 0.38 | 0.38 | 94 | 1027.8 |
| 20260903091044 | 15 | 150 | 0.0 | 0.0 | 0.18 | 0.38 | 0.38 | 94 | 1027.8 |
| 20260903090541 | 15 | 150 | 0.0 | 0.0 | 0.48 | 0.38 | 0.38 | 94 | 1027.6 |
| 20260903090039 | 15 | 150 | 0.0 | 0.0 | 0.71 | 0.36 | 0.36 | 94 | 1027.7 |
| 20260903085538 | 15 | 150 | 0.0 | 0.0 | 0.79 | 0.28 | 0.28 | 94 | 1027.9 |
| 20260903085034 | 15 | 150 | 0.0 | 0.0 | 0.97 | 0.23 | 0.23 | 94 | 1027.9 |
| 20260903084532 | 15 | 150 | 0.0 | 0.0 | 0.61 | 0.15 | 0.15 | 94 | 1028.1 |
| 20260903084027 | 15 | 150 | 0.0 | 0.0 | 0.30 | 0.08 | 0.08 | 94 | 1027.9 |
| 20260903083523 | 15 | 150 | 0.0 | 0.0 | 0.13 | 0.03 | 0.03 | 94 | 1028.0 |
| 20260903083022 | 15 | 150 | 0.0 | 0.0 | 0.13 | 0.03 | 0.03 | 94 | 1028.2 |
| 20260903082516 | 15 | 150 | 0.0 | 0.0 | 0.00 | 0.00 | 0.00 | 94 | 1028.0 |
| 20260903082012 | 15 | 150 | 0.0 | 0.0 | 0.00 | 0.00 | 0.00 | 94 | 1028.1 |
| 20260903081507 | 15 | 150 | 0.0 | 0.0 | 0.00 | 0.00 | 0.00 | 94 | 1028.4 |
| 20260903081003 | 15 | 150 | 0.0 | 0.0 | 0.00 | 0.00 | 0.00 | 94 | 1028.1 |
| 20260903080459 | 15 | 150 | 0.0 | 0.0 | 0.00 | 0.00 | 0.00 | 94 | 1027.9 |
| 20260903075955 | 15 | 150 | 0.0 | 0.0 | 0.00 | 0.00 | 0.00 | 94 | 1027.6 |
| 20260903075449 | 15 | 150 | 0.0 | 0.0 | 0.00 | 0.00 | 0.00 | 94 | 1027.8 |
| 20260903074945 | 15 | 150 | 0.0 | 0.0 | 0.00 | 0.00 | 0.00 | 94 | 1027.8 |
| 20260903074438 | 15 | 150 | 0.0 | 0.0 | 0.00 | 0.00 | 0.00 | 94 | 1027.7 |
| 20260903073934 | 15 | 150 | 0.0 | 0.0 | 0.00 | 0.00 | 0.00 | 94 | 1027.7 |
| 20260903073429 | 15 | 150 | 0.0 | 0.0 | 0.00 | 0.00 | 0.00 | 94 | 1027.8 |
| 20260903072925 | 15 | 150 | 0.0 | 0.0 | 0.00 | 0.00 | 0.00 | 94 | 1028.0 |
| 20260903072421 | 15 | 150 | 0.0 | 0.0 | 0.00 | 0.00 | 0.00 | 94 | 1028.0 |
| 20260903071917 | 15 | 150 | 0.0 | 0.0 | 0.00 | 0.00 | 0.00 | 94 | 1028.1 |
| 20260903071413 | 15 | 150 | 0.0 | 0.0 | 0.00 | 0.00 | 0.00 | 94 | 1028.1 |
| 20260903070909 | 15 | 150 | 0.0 | 0.0 | 0.00 | 0.00 | 0.00 | 94 | 1028.4 |
| 20260903070403 | 15 | 150 | 0.0 | 0.0 | 0.00 | 0.00 | 0.00 | 94 | 1028.6 |
| 20260903065858 | 15 | 150 | 0.0 | 0.0 | 0.00 | 0.00 | 0.00 | 94 | 1028.3 |
| 20260903065357 | 15 | 150 | 0.0 | 0.0 | 0.00 | 0.00 | 0.00 | 94 | 1028.7 |
| 20260903064856 | 15 | 150 | 0.0 | 0.0 | 0.00 | 0.00 | 0.00 | 94 | 1028.7 |
| 20260903064352 | 15 | 150 | 0.0 | 0.0 | 0.00 | 0.00 | 0.00 | 94 | 1028.7 |
| 20260903063848 | 15 | 150 | 0.0 | 0.0 | 0.00 | 0.00 | 0.00 | 94 | 1029.0 |
| 20260903063343 | 15 | 150 | 0.0 | 0.0 | 0.00 | 0.00 | 0.00 | 94 | 1029.2 |
| 20260903062839 | 15 | 150 | 0.0 | 0.0 | 0.00 | 0.00 | 0.00 | 94 | 1029.3 |
| 20260903062338 | 15 | 150 | 0.0 | 0.0 | 0.00 | 0.00 | 0.00 | 94 | 1029.2 |
| 20260903061834 | 15 | 150 | 0.0 | 0.0 | 0.00 | 0.00 | 0.00 | 94 | 1029.1 |
| 20260903061327 | 15 | 150 | 0.0 | 0.0 | 0.00 | 0.00 | 0.00 | 94 | 1029.2 |
| 20260903060824 | 15 | 150 | 0.0 | 0.0 | 0.00 | 0.00 | 0.00 | 94 | 1029.3 |
| 20260903060323 | 15 | 150 | 0.0 | 0.0 | 0.00 | 0.00 | 0.00 | 94 | 1029.5 |
| 20260903055821 | 15 | 150 | 0.0 | 0.0 | 0.00 | 0.00 | 0.00 | 93 | 1029.7 |
| 20260903055320 | 15 | 150 | 0.0 | 0.0 | 0.00 | 0.00 | 0.00 | 93 | 1029.7 |
| 20260903054815 | 15 | 150 | 0.0 | 0.0 | 0.00 | 0.00 | 0.00 | 93 | 1029.3 |
| 20260903054314 | 15 | 150 | 0.0 | 0.0 | 0.00 | 0.00 | 0.00 | 93 | 1029.5 |
| 20260903053811 | 15 | 150 | 0.0 | 0.0 | 0.00 | 0.00 | 0.00 | 92 | 1029.6 |
| 20260903053306 | 15 | 150 | 0.0 | 0.0 | 0.00 | 0.00 | 0.00 | 92 | 1029.7 |
| 20260903052802 | 15 | 150 | 0.0 | 0.0 | 0.00 | 0.00 | 0.00 | 92 | 1029.9 |
| 20260903052257 | 15 | 150 | 0.0 | 0.0 | 0.00 | 0.00 | 0.00 | 92 | 1029.9 |
| 20260903051752 | 15 | 150 | 0.0 | 0.0 | 0.00 | 0.00 | 0.00 | 92 | 1029.9 |
| 20260903051248 | 15 | 150 | 0.0 | 0.0 | 0.00 | 0.00 | 0.00 | 92 | 1030.0 |
| 20260903050743 | 15 | 150 | 0.0 | 0.0 | 0.00 | 0.00 | 0.00 | 92 | 1029.8 |
| 20260903050242 | 15 | 150 | 0.0 | 0.0 | 0.00 | 0.00 | 0.00 | 92 | 1030.0 |
| 20260903045737 | 15 | 150 | 0.0 | 0.0 | 0.00 | 0.00 | 0.00 | 92 | 1030.0 |
| 20260903045233 | 15 | 150 | 0.0 | 0.0 | 0.00 | 0.00 | 0.00 | 92 | 1029.8 |
| 20260903044729 | 15 | 150 | 0.0 | 0.0 | 0.00 | 0.00 | 0.00 | 91 | 1029.8 |
| 20260903044224 | 15 | 150 | 0.0 | 0.0 | 0.00 | 0.00 | 0.00 | 91 | 1029.9 |
| 20260903043721 | 15 | 150 | 0.0 | 0.0 | 0.00 | 0.00 | 0.00 | 91 | 1030.0 |
| 20260903043221 | 15 | 150 | 0.0 | 0.0 | 0.00 | 0.00 | 0.00 | 91 | 1030.0 |
| 20260903042720 | 15 | 150 | 0.0 | 0.0 | 0.00 | 0.00 | 0.00 | 91 | 1030.3 |
| 20260903042215 | 15 | 150 | 0.0 | 0.0 | 0.00 | 0.00 | 0.00 | 91 | 1030.2 |
| 20260903041711 | 15 | 150 | 0.0 | 0.0 | 0.00 | 0.00 | 0.00 | 90 | 1030.2 |
| 20260903041207 | 15 | 150 | 0.0 | 0.0 | 0.00 | 0.00 | 0.00 | 90 | 1030.3 |
| 20260903040706 | 15 | 150 | 0.0 | 0.0 | 0.00 | 0.00 | 0.00 | 90 | 1030.6 |
| 20260903040202 | 15 | 150 | 0.0 | 0.0 | 0.00 | 0.00 | 0.00 | 90 | 1030.7 |
| 20260903035657 | 15 | 150 | 0.0 | 0.0 | 0.00 | 0.00 | 0.00 | 90 | 1030.9 |
| 20260903035148 | 15 | 150 | 0.0 | 0.0 | 0.00 | 0.00 | 0.00 | 90 | 1030.9 |
| 20260903034648 | 15 | 150 | 0.0 | 0.0 | 0.00 | 0.00 | 0.00 | 90 | 1030.8 |
| 20260903034143 | 15 | 150 | 0.0 | 0.0 | 0.00 | 0.00 | 0.00 | 90 | 1030.9 |
| 20260903033638 | 15 | 150 | 0.0 | 0.0 | 0.00 | 0.00 | 0.00 | 90 | 1030.8 |
| 20260903033138 | 15 | 150 | 0.0 | 0.0 | 0.00 | 0.00 | 0.00 | 89 | 1031.1 |
| 20260903032633 | 15 | 150 | 0.0 | 0.0 | 0.00 | 0.00 | 0.00 | 89 | 1030.9 |
| 20260903032129 | 15 | 150 | 0.0 | 0.0 | 0.00 | 0.00 | 0.00 | 89 | 1030.9 |
| 20260903031624 | 15 | 150 | 0.0 | 0.0 | 0.00 | 0.00 | 0.00 | 89 | 1031.0 |
| 20260903031119 | 15 | 150 | 0.0 | 0.0 | 0.00 | 0.00 | 0.00 | 89 | 1031.1 |
| 20260903030615 | 15 | 150 | 0.0 | 0.0 | 0.00 | 0.00 | 0.00 | 89 | 1031.3 |
| 20260903030110 | 15 | 150 | 0.0 | 0.0 | 0.00 | 0.00 | 0.00 | 89 | 1031.1 |
| 20260903025605 | 15 | 150 | 0.0 | 0.0 | 0.00 | 0.00 | 0.00 | 89 | 1031.4 |
| 20260903025101 | 15 | 150 | 0.0 | 0.0 | 0.00 | 0.00 | 0.00 | 89 | 1031.1 |
| 20260903024601 | 15 | 150 | 0.0 | 1.6 | 0.00 | 0.00 | 0.00 | 89 | 1031.0 |
| 20260903024055 | 15 | 150 | 0.0 | 0.0 | 0.00 | 0.00 | 0.00 | 89 | 1031.2 |
| 20260903023551 | 15 | 150 | 0.0 | 0.0 | 0.00 | 0.00 | 0.00 | 89 | 1031.0 |
| 20260903023046 | 15 | 150 | 0.0 | 0.0 | 0.00 | 0.00 | 0.00 | 89 | 1031.0 |
| 20260903022545 | 15 | 150 | 0.0 | 0.0 | 0.00 | 0.00 | 0.00 | 89 | 1031.2 |
| 20260903022043 | 15 | 150 | 0.0 | 0.0 | 0.00 | 0.00 | 0.00 | 88 | 1031.0 |
| 20260903021533 | 15 | 150 | 0.0 | 0.0 | 0.00 | 0.00 | 0.00 | 88 | 1031.1 |
| 20260903021028 | 15 | 150 | 0.0 | 0.0 | 0.00 | 0.00 | 0.00 | 88 | 1031.1 |
| 20260903020524 | 15 | 150 | 0.0 | 0.0 | 0.00 | 0.00 | 0.00 | 88 | 1031.4 |
| 20260903020024 | 15 | 150 | 0.0 | 0.0 | 0.00 | 0.00 | 0.00 | 88 | 1031.5 |
| 20260903015519 | 16 | 150 | 0.0 | 1.6 | 0.00 | 0.00 | 0.00 | 88 | 1031.4 |
| 20260903015014 | 16 | 150 | 0.0 | 0.0 | 0.00 | 0.00 | 0.00 | 88 | 1031.3 |
| 20260903014508 | 16 | 150 | 0.0 | 0.0 | 0.00 | 0.00 | 0.00 | 88 | 1031.4 |
| 20260903014003 | 16 | 150 | 0.0 | 0.0 | 0.00 | 0.00 | 0.00 | 89 | 1031.2 |
| 20260903013502 | 16 | 150 | 0.0 | 0.0 | 0.00 | 0.00 | 0.00 | 88 | 1031.0 |
| 20260903013002 | 16 | 150 | 0.0 | 0.0 | 0.00 | 0.00 | 0.00 | 88 | 1031.0 |
| 20260903012501 | 16 | 150 | 0.0 | 0.0 | 0.00 | 0.00 | 0.00 | 88 | 1031.0 |
| 20260903012000 | 16 | 150 | 0.0 | 0.0 | 0.00 | 0.00 | 0.00 | 88 | 1031.5 |
| 20260903011455 | 16 | 150 | 0.0 | 0.0 | 0.00 | 0.00 | 0.00 | 88 | 1031.5 |
| 20260903010950 | 16 | 150 | 0.0 | 0.0 | 0.00 | 0.00 | 0.00 | 88 | 1031.2 |
| 20260903010445 | 16 | 150 | 0.0 | 0.0 | 0.00 | 0.00 | 0.00 | 88 | 1031.3 |
| 20260903005943 | 16 | 150 | 0.0 | 0.0 | 0.00 | 0.00 | 0.00 | 88 | 1031.5 |
| 20260903005438 | 16 | 150 | 0.0 | 0.0 | 0.00 | 0.00 | 0.00 | 88 | 1031.4 |
| 20260903004935 | 16 | 150 | 0.0 | 0.0 | 0.00 | 0.00 | 0.00 | 88 | 1031.3 |
| 20260903004429 | 16 | 150 | 0.0 | 0.0 | 0.00 | 0.00 | 0.00 | 88 | 1031.2 |
| 20260903003925 | 16 | 150 | 0.0 | 0.0 | 0.00 | 0.00 | 0.00 | 87 | 1031.0 |
| 20260903003419 | 16 | 150 | 0.0 | 1.6 | 0.00 | 0.00 | 0.00 | 87 | 1030.7 |
| 20260903002920 | 16 | 150 | 0.0 | 0.0 | 0.00 | 0.00 | 0.00 | 87 | 1031.1 |
| 20260903002414 | 16 | 150 | 0.0 | 0.0 | 0.00 | 0.00 | 0.00 | 86 | 1031.2 |
| 20260903001909 | 16 | 150 | 0.0 | 1.6 | 0.00 | 0.00 | 0.00 | 86 | 1031.2 |
| 20260903001404 | 16 | 150 | 0.0 | 0.0 | 0.00 | 0.00 | 0.00 | 86 | 1030.9 |
| 20260903000903 | 16 | 150 | 0.0 | 3.2 | 0.00 | 0.00 | 0.00 | 85 | 1030.9 |
| 20260903000359 | 16 | 150 | 0.0 | 0.0 | 0.00 | 0.00 | 0.00 | 85 | 1031.2 |
| 20260902235857 | 16 | 150 | 0.0 | 0.0 | 0.00 | 0.00 | 0.00 | 85 | 1031.0 |
| 20260902235352 | 16 | 150 | 0.0 | 0.0 | 0.00 | 0.00 | 0.00 | 85 | 1031.2 |
| 20260902234851 | 16 | 150 | 0.0 | 0.0 | 0.00 | 0.00 | 0.00 | 84 | 1031.1 |
| 20260902234346 | 17 | 150 | 0.0 | 0.0 | 0.00 | 0.00 | 0.00 | 84 | 1031.3 |
| 20260902233844 | 17 | 150 | 0.0 | 0.0 | 0.00 | 0.00 | 0.00 | 83 | 1031.3 |
| 20260902233340 | 17 | 150 | 0.0 | 0.0 | 0.00 | 0.00 | 0.00 | 83 | 1031.4 |
| 20260902232838 | 17 | 150 | 0.0 | 0.0 | 0.00 | 0.00 | 0.00 | 82 | 1031.4 |
| 20260902232333 | 17 | 150 | 0.0 | 0.0 | 0.00 | 0.00 | 0.00 | 82 | 1031.8 |
| 20260902231833 | 17 | 150 | 0.0 | 0.0 | 0.00 | 0.00 | 0.00 | 82 | 1031.7 |
| 20260902231327 | 17 | 150 | 0.0 | 0.0 | 0.00 | 0.00 | 0.00 | 81 | 1031.8 |
| 20260902230823 | 17 | 150 | 0.0 | 0.0 | 0.00 | 0.00 | 0.00 | 81 | 1031.9 |
| 20260902230322 | 17 | 150 | 0.0 | 0.0 | 0.00 | 0.00 | 0.00 | 81 | 1032.1 |
| 20260902225816 | 17 | 150 | 0.0 | 0.0 | 0.00 | 0.00 | 0.00 | 81 | 1032.0 |
| 20260902225312 | 17 | 150 | 0.0 | 0.0 | 0.00 | 0.00 | 0.00 | 80 | 1031.7 |
| 20260902224810 | 17 | 150 | 0.0 | 0.0 | 0.00 | 0.00 | 0.00 | 80 | 1031.9 |
| 20260902224305 | 17 | 150 | 0.0 | 0.0 | 0.00 | 0.00 | 0.00 | 79 | 1032.2 |
| 20260902223802 | 17 | 150 | 0.0 | 0.0 | 0.00 | 0.00 | 0.00 | 78 | 1032.3 |
| 20260902223301 | 17 | 150 | 0.0 | 0.0 | 0.00 | 0.00 | 0.00 | 77 | 1032.1 |
| 20260902222754 | 17 | 150 | 0.0 | 0.0 | 0.00 | 0.00 | 0.00 | 77 | 1032.2 |
| 20260902222249 | 17 | 150 | 0.0 | 0.0 | 0.00 | 0.00 | 0.00 | 77 | 1032.4 |
| 20260902221743 | 17 | 150 | 0.0 | 0.0 | 0.00 | 0.00 | 0.00 | 77 | 1032.4 |
| 20260902221242 | 17 | 150 | 0.0 | 0.0 | 0.00 | 0.00 | 0.00 | 77 | 1032.3 |
| 20260902220738 | 17 | 150 | 0.0 | 0.0 | 0.00 | 0.00 | 0.00 | 77 | 1032.2 |
| 20260902220238 | 18 | 150 | 0.0 | 0.0 | 0.00 | 0.00 | 0.00 | 76 | 1032.2 |
| 20260902215733 | 18 | 150 | 0.0 | 0.0 | 0.00 | 0.00 | 0.00 | 76 | 1032.1 |
| 20260902215228 | 18 | 150 | 0.0 | 0.0 | 0.00 | 0.00 | 0.00 | 76 | 1032.2 |
| 20260902214724 | 18 | 150 | 0.0 | 0.0 | 0.00 | 0.00 | 0.00 | 76 | 1032.2 |
| 20260902214223 | 18 | 150 | 0.0 | 0.0 | 0.00 | 0.00 | 0.00 | 75 | 1032.2 |
| 20260902213719 | 18 | 150 | 0.0 | 0.0 | 0.00 | 0.00 | 0.00 | 75 | 1032.4 |
| 20260902213219 | 18 | 150 | 0.0 | 0.0 | 0.00 | 0.00 | 0.00 | 75 | 1032.4 |
| 20260902212718 | 18 | 150 | 0.0 | 0.0 | 0.00 | 0.00 | 0.00 | 75 | 1032.2 |
| 20260902212215 | 18 | 150 | 0.0 | 0.0 | 0.00 | 0.00 | 0.00 | 74 | 1032.2 |
| 20260902211711 | 18 | 150 | 0.0 | 0.0 | 0.00 | 0.00 | 0.00 | 75 | 1032.5 |
| 20260902211206 | 18 | 150 | 0.0 | 0.0 | 0.00 | 0.00 | 0.00 | 74 | 1032.2 |
| 20260902210700 | 18 | 150 | 0.0 | 0.0 | 0.00 | 0.00 | 0.00 | 74 | 1032.3 |
| 20260902210155 | 18 | 150 | 0.0 | 1.6 | 0.00 | 0.00 | 0.00 | 72 | 1032.5 |
| 20260902205653 | 18 | 150 | 0.0 | 0.0 | 0.00 | 0.00 | 0.00 | 71 | 1032.3 |
| 20260902205149 | 18 | 150 | 0.0 | 1.6 | 0.00 | 0.00 | 0.00 | 73 | 1032.3 |
| 20260902204644 | 18 | 150 | 0.0 | 1.6 | 0.00 | 0.00 | 0.00 | 73 | 1032.3 |
| 20260902204138 | 18 | 150 | 0.0 | 0.0 | 0.00 | 0.00 | 0.00 | 72 | 1032.5 |
| 20260902203634 | 18 | 150 | 0.0 | 0.0 | 0.00 | 0.00 | 0.00 | 73 | 1032.8 |
| 20260902203134 | 18 | 150 | 0.0 | 1.6 | 0.00 | 0.00 | 0.00 | 73 | 1033.1 |
| 20260902202630 | 18 | 150 | 0.0 | 0.0 | 0.00 | 0.00 | 0.00 | 73 | 1032.9 |
| 20260902202126 | 18 | 150 | 0.0 | 1.6 | 0.00 | 0.00 | 0.00 | 72 | 1032.9 |
| 20260902201621 | 18 | 150 | 0.0 | 0.0 | 0.00 | 0.00 | 0.00 | 73 | 1032.8 |
| 20260902201121 | 18 | 150 | 0.0 | 0.0 | 0.00 | 0.00 | 0.00 | 73 | 1032.8 |
| 20260902200616 | 18 | 150 | 0.0 | 1.6 | 0.00 | 0.00 | 0.00 | 73 | 1032.7 |
| 20260902200113 | 18 | 150 | 0.0 | 1.6 | 0.00 | 0.00 | 0.00 | 74 | 1032.8 |
| 20260902195608 | 18 | 150 | 0.0 | 3.2 | 0.00 | 0.00 | 0.00 | 73 | 1032.7 |
| 20260902195107 | 18 | 150 | 0.0 | 0.0 | 0.00 | 0.00 | 0.00 | 74 | 1033.1 |
| 20260902194606 | 18 | 150 | 0.0 | 1.6 | 0.00 | 0.00 | 0.00 | 73 | 1032.9 |
| 20260902194102 | 18 | 150 | 0.0 | 1.6 | 0.00 | 0.00 | 0.00 | 73 | 1033.1 |
| 20260902193558 | 19 | 150 | 0.0 | 0.0 | 0.00 | 0.00 | 0.00 | 72 | 1033.1 |
| 20260902193057 | 19 | 150 | 0.0 | 0.0 | 0.00 | 0.00 | 0.00 | 71 | 1033.3 |
| 20260902192555 | 19 | 150 | 0.0 | 1.6 | 0.00 | 0.00 | 0.00 | 72 | 1033.4 |
| 20260902192054 | 20 | 150 | 0.0 | 0.0 | 0.00 | 0.00 | 0.00 | 72 | 1033.3 |
| 20260902191550 | 19 | 150 | 0.0 | 0.0 | 0.00 | 0.00 | 0.00 | 71 | 1033.3 |
| 20260902191044 | 19 | 150 | 0.0 | 0.0 | 0.00 | 0.00 | 0.00 | 71 | 1033.2 |
| 20260902190540 | 19 | 150 | 0.0 | 0.0 | 0.00 | 0.00 | 0.00 | 71 | 1033.2 |
| 20260902190035 | 19 | 150 | 0.0 | 0.0 | 0.00 | 0.00 | 0.00 | 71 | 1033.4 |
| 20260902185531 | 19 | 150 | 0.0 | 0.0 | 0.00 | 0.00 | 0.00 | 71 | 1033.4 |
| 20260902185027 | 19 | 150 | 0.0 | 0.0 | 0.00 | 0.00 | 0.00 | 72 | 1033.3 |
| 20260902184521 | 19 | 150 | 0.0 | 0.0 | 0.00 | 0.00 | 0.00 | 71 | 1033.4 |
| 20260902184017 | 19 | 150 | 0.0 | 0.0 | 0.00 | 0.00 | 0.00 | 71 | 1033.5 |
| 20260902183513 | 19 | 150 | 0.0 | 1.6 | 0.00 | 0.00 | 0.00 | 70 | 1033.6 |
| 20260902183009 | 19 | 150 | 0.0 | 0.0 | 0.00 | 0.00 | 0.00 | 70 | 1033.3 |
| 20260902182505 | 19 | 150 | 0.0 | 0.0 | 0.00 | 0.00 | 0.00 | 69 | 1033.4 |
| 20260902182000 | 19 | 150 | 0.0 | 0.0 | 0.00 | 0.00 | 0.00 | 68 | 1033.4 |
| 20260902181456 | 19 | 150 | 0.0 | 0.0 | 0.00 | 0.00 | 0.00 | 68 | 1033.5 |
| 20260902180951 | 19 | 150 | 0.0 | 0.0 | 0.00 | 0.00 | 0.00 | 68 | 1033.5 |
| 20260902180446 | 19 | 150 | 0.0 | 1.6 | 0.00 | 0.00 | 0.00 | 68 | 1033.4 |
| 20260902175941 | 19 | 150 | 0.0 | 0.0 | 0.00 | 0.00 | 0.00 | 69 | 1033.6 |
| 20260902175441 | 19 | 150 | 0.0 | 0.0 | 0.00 | 0.00 | 0.00 | 68 | 1034.0 |
| 20260902174937 | 19 | 150 | 0.0 | 0.0 | 0.00 | 0.00 | 0.00 | 69 | 1033.6 |
| 20260902174434 | 19 | 150 | 0.0 | 0.0 | 0.00 | 0.00 | 0.00 | 69 | 1033.6 |
| 20260902173929 | 19 | 150 | 0.0 | 0.0 | 0.00 | 0.00 | 0.00 | 68 | 1033.8 |
| 20260902173428 | 19 | 150 | 0.0 | 0.0 | 0.00 | 0.00 | 0.00 | 67 | 1033.5 |
| 20260902172924 | 19 | 50 | 0.0 | 0.0 | 0.00 | 0.00 | 0.00 | 66 | 1033.5 |
| 20260902172423 | 19 | 50 | 0.0 | 0.0 | 0.00 | 0.00 | 0.00 | 67 | 1033.5 |
| 20260902171918 | 19 | 50 | 0.0 | 1.6 | 0.00 | 0.00 | 0.00 | 65 | 1033.6 |
| 20260902171414 | 20 | 50 | 0.0 | 0.0 | 0.00 | 0.00 | 0.00 | 64 | 1033.5 |
| 20260902170910 | 20 | 50 | 0.0 | 0.0 | 0.00 | 0.00 | 0.00 | 64 | 1033.3 |
| 20260902170405 | 20 | 50 | 0.0 | 0.0 | 0.00 | 0.00 | 0.00 | 63 | 1033.3 |
| 20260902165900 | 19 | 50 | 0.0 | 0.0 | 0.00 | 0.00 | 0.00 | 63 | 1033.3 |
| 20260902165359 | 19 | 50 | 0.0 | 0.0 | 0.00 | 0.00 | 0.00 | 64 | 1032.9 |
| 20260902164854 | 19 | 50 | 0.0 | 0.0 | 0.00 | 0.00 | 0.00 | 65 | 1033.3 |
| 20260902164349 | 19 | 50 | 0.0 | 0.0 | 0.00 | 0.00 | 0.00 | 63 | 1033.4 |
| 20260902163848 | 19 | 50 | 0.0 | 0.0 | 0.00 | 0.00 | 0.00 | 64 | 1033.2 |
| 20260902163343 | 19 | 50 | 0.0 | 0.0 | 0.00 | 0.00 | 0.00 | 64 | 1033.5 |
| 20260902162841 | 19 | 50 | 0.0 | 3.2 | 0.00 | 0.00 | 0.00 | 61 | 1033.7 |
| 20260902162337 | 19 | 50 | 0.0 | 0.0 | 0.00 | 0.00 | 0.00 | 67 | 1034.0 |
| 20260902161831 | 19 | 50 | 0.0 | 0.0 | 0.00 | 0.00 | 0.00 | 70 | 1033.9 |
| 20260902161327 | 19 | 50 | 0.0 | 1.6 | 0.00 | 0.00 | 0.00 | 69 | 1034.0 |
| 20260902160823 | 20 | 50 | 0.0 | 0.0 | 0.00 | 0.00 | 0.00 | 68 | 1034.1 |
| 20260902160318 | 20 | 50 | 0.0 | 1.6 | 0.00 | 0.00 | 0.00 | 65 | 1034.1 |
| 20260902155816 | 20 | 50 | 0.0 | 1.6 | 0.00 | 0.00 | 0.00 | 64 | 1033.8 |
| 20260902155314 | 20 | 50 | 0.0 | 0.0 | 0.00 | 0.00 | 0.00 | 72 | 1033.8 |
| 20260902154810 | 20 | 50 | 0.0 | 0.0 | 0.00 | 0.00 | 0.00 | 71 | 1034.3 |
| 20260902154306 | 20 | 50 | 0.0 | 0.0 | 0.00 | 0.00 | 0.00 | 74 | 1034.1 |
| 20260902153804 | 20 | 50 | 0.0 | 0.0 | 0.00 | 0.00 | 0.00 | 74 | 1034.2 |
| 20260902153259 | 20 | 50 | 0.0 | 0.0 | 0.00 | 0.00 | 0.00 | 73 | 1034.4 |
| 20260902152754 | 20 | 50 | 0.0 | 0.0 | 0.00 | 0.00 | 0.00 | 72 | 1034.3 |
| 20260902152251 | 20 | 50 | 0.0 | 0.0 | 0.00 | 0.00 | 0.00 | 73 | 1034.3 |
| 20260902151750 | 20 | 50 | 0.0 | 0.0 | 0.00 | 0.00 | 0.00 | 73 | 1034.2 |
| 20260902151245 | 20 | 50 | 0.0 | 0.0 | 0.00 | 0.00 | 0.00 | 73 | 1034.0 |
| 20260902150740 | 20 | 50 | 0.0 | 0.0 | 0.00 | 0.00 | 0.00 | 76 | 1033.9 |
| 20260902150237 | 20 | 50 | 0.0 | 0.0 | 0.00 | 0.00 | 0.00 | 77 | 1034.0 |
| 20260902145735 | 19 | 50 | 0.0 | 0.0 | 0.00 | 0.00 | 0.00 | 77 | 1033.9 |
| 20260902145231 | 20 | 50 | 0.0 | 0.0 | 0.00 | 0.00 | 0.00 | 76 | 1034.1 |
| 20260902144726 | 19 | 50 | 0.0 | 0.0 | 0.00 | 0.00 | 0.00 | 78 | 1033.8 |
| 20260902144222 | 19 | 50 | 0.0 | 0.0 | 0.00 | 0.00 | 0.00 | 78 | 1034.2 |
| 20260902143718 | 18 | 50 | 0.0 | 0.0 | 0.00 | 0.00 | 0.00 | 79 | 1034.0 |
| 20260902143213 | 18 | 50 | 0.0 | 0.0 | 0.00 | 0.00 | 0.00 | 79 | 1034.1 |
| 20260902142708 | 18 | 50 | 0.0 | 0.0 | 0.00 | 0.00 | 0.00 | 80 | 1033.8 |
| 20260902142203 | 18 | 50 | 0.0 | 0.0 | 0.00 | 0.00 | 0.00 | 79 | 1033.9 |